Location: Helsinki
(60.1699°N, 24.9384°E)
Time: 23:55:44
(UTC+02:00)

Altair - Pass Details

Date: 03 November 2020
Orbit: 1502 x 1682 km, 47.2° (Epoch: 25 November)

Event Time Altitude Azimuth Distance (km) Brightness Sun altitude
Rises 03:26:54 0° 200° (SSW) 4,633 - -32.0°
Reaches altitude 10° 03:30:51 10° 185° (S) 3,667 - -31.6°
Exits shadow 03:33:04 15° 173° (S) 3,258 9.0 -31.4°
Maximum altitude 03:37:05 21° 142° (SE) 2,944 9.0 -30.9°
Drops below altitude 10° 03:43:26 10° 98° (E) 3,748 10.2 -30.2°
Sets 03:47:31 0° 84° (E) 4,765 11.2 -29.7°
